Weather in Chiplyayevo

Russia / Kaluga Oblast     54°23′30″N   34°11′35″E
temp.,
°C
wind,
m/s
gust,
m/s
humid.,
%
clouds,
%
prec.,
mm/h
press.,
hPa
HPBL,
m
15 may, sat
sat1500:00+12se269799 0.1 1007121
03:00+11sse38976 0.1 1007156
06:00+11s39977 0.0 1008236
09:00+16s4883100 0.1 1008570
12:00+19ssw586231 0.8 10081590
15:00+17ssw577320 2.4 10081078
18:00+16ssw498313 1.8 1008933
21:00+13ssw411957 2.2 1009488
16 may, sun
sun1600:00+11ssw3109799 0.0 1010308
03:00+10s3109735 0.0 1011262
06:00+10s310965 0.0 1012289
09:00+15ssw488028 0.0 1012603
12:00+17sw4670100 0.3 10131148
15:00+20sw456071 0.5 10131514
18:00+19ssw24665 0.2 1013949
21:00+14se1188100 0.3 101311
17 may, mon
mon1700:00+12ese2291100 0.0 101320
03:00+11se2393100 0.0 101354
06:00+12ese279048 0.0 1013153
09:00+15e31082100 0.0 1012372
12:00+23ese585962 0.0 10091090
15:00+25ese61056100 0.0 10071519
18:00+23se61261100 0.0 10051452
21:00+18se412785 0.0 1005438
18 may, tue
tue1800:00+16sse41188100 0.0 1005354
03:00+15ese2398100 0.0 100477
06:00+15sse1198100 1.6 100555
09:00+18se2391100 3.1 1004472
12:00+18ssw2389100 1.6 1004463
15:00+17w4694100 5.6 1004515
18:00+14w1493100 2.9 1005195
21:00+14sse2296100 3.0 100648
19 may, wed
wed1900:00+13s1196100 0.3 100611
03:00+13e1197100 0.8 100512
06:00+13s0199100 2.1 100446
09:00+13wsw1199100 7.3 1004103
12:00+12nw51097100 7.3 1004724
15:00+11wnw41194100 10.9 1008803
18:00+14wnw368392 0.1 1010800
21:00+11ssw1193100 0.2 101110